Location: Holkham
(52.9500°N, 0.8167°E)
Time: 11:48:27
(UTC+00:00)

Exosat Rocket - Pass Details

Date: 19 May 2025
Orbit: 761 x 2512 km, 72.3° (Epoch: 12 June)

Event Time Altitude Azimuth Distance (km) Brightness Sun altitude
Rises 23:08:04 0° 330° (NNW) 3,416 8.3 -16.4°
Reaches altitude 10° 23:10:34 10° 330° (NNW) 2,383 7.2 -16.5°
Maximum altitude 23:15:43 87° 243° (WSW) 770 3.4 -16.6°
Enters shadow 23:18:33 27° 154° (SSE) 1,463 4.4 -16.7°
